Погода в Каменке

Россия / Приморский край     44°20′44″N   133°56′01″E
темп.,
°C
ветер,
м/с
пор.,
м/с
влажн.,
%
обл.,
%
осадки,
мм/ч
давл.,
гПа
погр.,
м
9 мая, вс
вс901:00+8вюв3767100 0.0 993215
04:00+5вюв4108898 0.0 993627
07:00+4юв21194100 1.0 9931009
10:00+3ю1398100 6.1 995278
13:00+2зсз0199100 8.7 996219
16:00+3с1299100 11.3 998322
19:00+3ссв1298100 0.6 1000324
22:00+4з1299100 0.8 100389
10 мая, пн
пн1001:00+4з11100100 1.0 100481
04:00+4з13100100 2.3 1006185
07:00+5зсз25100100 1.3 1007480
10:00+5зсз2499100 2.1 1009459
13:00+5з2398100 0.8 1011481
16:00+5зсз2397100 1.3 1011426
19:00+5зсз1299100 0.6 1012138
22:00+4з11100100 1.1 101461
11 мая, вт
вт1101:00+4з11100100 0.5 101470
04:00+4зсз11100100 2.0 101471
07:00+5сз1199100 0.5 1016106
10:00+7сз128783 0.9 1017675
13:00+9ссз1279100 0.6 1017937
16:00+12с126458 0.9 10161219
19:00+9ссз1176100 0.1 101710
22:00+5юв218815 0.1 101911
12 мая, ср
ср1201:00+4юв2294100 0.0 101939
04:00+3юв2297100 0.0 102039
07:00+4юв239253 0.0 101992
10:00+11ююв2469100 0.0 1016570
13:00+15ю4749100 0.0 10141413
16:00+13ю41056100 0.0 10131519
19:00+8ю31089100 2.1 1014862
22:00+6ю31094100 5.3 1016764
13 мая, чт
чт1301:00+5ю379197 0.0 1015203
04:00+4ююв34950 0.0 101467
07:00+5ю25920 0.0 1014125
10:00+12юз36691 0.0 1013659
13:00+18з410383 0.0 10122519
16:00+18з4840100 0.0 10112168
19:00+15зюз1160100 0.0 101117
22:00+10ю22784 0.0 101321